Weather in Malotroitskoye

Russia / Belgorod Oblast     51°02′11″N   38°02′01″E
temp.,
°C
wind,
m/s
gust,
m/s
humid.,
%
clouds,
%
prec.,
mm/h
press.,
hPa
HPBL,
m
25 may, wed
wed2500:00+7wnw22857 0.0 101212
03:00+8w357032 0.0 1013100
06:00+7nw24866 0.0 1014135
09:00+12n346397 0.0 1015631
12:00+15nw3552100 0.0 10161412
15:00+17nw5749100 0.0 10151959
18:00+16nnw45615 0.0 1016834
21:00+10e22833 0.0 101717
26 may, thu
thu2600:00+8sse22884 0.0 101714
03:00+8sw22890 0.0 101714
06:00+10sw25875 0.0 1016139
09:00+16sw566655 0.0 1015584
12:00+19sw7950100 0.0 10142187
15:00+15ssw71369100 0.1 1012939
18:00+12sw101889100 3.4 10101109
21:00+13wsw914879 3.9 10101027
27 may, fri
fri2700:00+11sw715958 0.0 1010461
03:00+10wsw614935 0.1 1010421
06:00+11wsw71590100 0.2 1009687
09:00+13w7118241 0.3 10101022
12:00+17wnw911535 0.6 10111966
15:00+18wnw810515 0.6 10122090
18:00+16w6106414 0.0 10121383
21:00+12sw46814 0.0 101380
28 may, sat
sat2800:00+11ssw4128929 0.0 1012218
03:00+12ssw7178093 0.0 1009433
06:00+14ssw71679100 0.1 1008722
09:00+12nw2789100 0.9 1009362
12:00+15wsw587185 0.5 10121253
15:00+17wsw6864100 0.6 10121523
18:00+16wsw3668100 0.0 10131168
21:00+12sw128352 0.0 101410
29 may, sun
sun2900:00+13wsw2479100 0.0 101483
03:00+12wsw2778100 0.2 1015184
06:00+10wsw2495100 1.9 1016155
09:00+11sw2494100 3.1 1018234
12:00+15ssw3469100 0.3 10181197
15:00+16ssw3470100 0.4 1018789
18:00+16ssw3468100 0.0 1018771
21:00+12ssw2281100 0.0 101913